O/OREOS (USA 219)

Last updated on Sat Nov 15 2025 00:03:10 GMT+0000 (Coordinated Universal Time)

1 37224U 10062C 25318.67806918 .00003895 00000+0 38479-3 0 9999 2 37224 71.9714 205.8056 0013039 119.8693 240.3775 14.92462743 84628
UTC large
Height (km)
Speed (km/s)
/
Latitude / Longitude
Inclination (degrees)
Orbital Period (minutes)
Azimuth
Elevation
Range (km)
Doppler Factor

Next 0 passes for location: London (51.5072 / 0.1276)

Sorry there are no passes over London.